EN

Hourly Weather Lahnevo

Today, 28 July, Wednesday

Time Temperature Precipitation Wind Pressure Humidity
00:00 +16°C° 0 mm 2 mps 749 mmHg 87%
01:00 +16°C° 0 mm 2 mps 749 mmHg 86%
02:00 +16°C° 0 mm 2 mps 749 mmHg 84%
03:00 +16°C° 0 mm 2 mps 748 mmHg 82%
04:00 +17°C° 0 mm 2 mps 748 mmHg 80%
05:00 +17°C° 0 mm 2 mps 748 mmHg 78%
06:00 +19°C° 0 mm 2 mps 748 mmHg 70%
07:00 +21°C° 0 mm 3 mps 747 mmHg 61%
08:00 +24°C° 0 mm 3 mps 747 mmHg 54%
09:00 +26°C° 0 mm 3 mps 747 mmHg 48%
10:00 +28°C° 0 mm 4 mps 747 mmHg 42%
11:00 +29°C° 0 mm 4 mps 746 mmHg 36%
12:00 +29°C° 0 mm 4 mps 746 mmHg 40%
13:00 +28°C° 0 mm 4 mps 745 mmHg 45%
14:00 +27°C° 0 mm 4 mps 745 mmHg 51%
15:00 +26°C° 0.1 mm 4 mps 745 mmHg 55%
16:00 +25°C° 0.1 mm 4 mps 744 mmHg 60%
17:00 +23°C° 0.1 mm 5 mps 744 mmHg 64%
18:00 +21°C° 0 mm 4 mps 744 mmHg 73%
19:00 +20°C° 0 mm 3 mps 744 mmHg 82%
20:00 +18°C° 0 mm 2 mps 744 mmHg 91%
21:00 +17°C° 0 mm 2 mps 743 mmHg 92%
22:00 +17°C° 0 mm 2 mps 743 mmHg 94%
23:00 +18°C° 0 mm 1 mps 743 mmHg 95%

Tomorrow, 29 July, Thursday

Time Temperature Precipitation Wind Pressure Humidity
00:00 +16°C° 0 mm 1 mps 742 mmHg 96%
01:00 +16°C° 0 mm 1 mps 742 mmHg 97%
02:00 +16°C° 0 mm 1 mps 742 mmHg 98%
03:00 +16°C° 0 mm 1 mps 742 mmHg 97%
04:00 +16°C° 0 mm 1 mps 741 mmHg 96%
05:00 +16°C° 0 mm 1 mps 741 mmHg 96%
06:00 +18°C° 0 mm 2 mps 741 mmHg 86%
07:00 +20°C° 0 mm 2 mps 741 mmHg 77%
08:00 +23°C° 0 mm 2 mps 741 mmHg 68%
09:00 +24°C° 0 mm 2 mps 740 mmHg 64%
10:00 +25°C° 0 mm 3 mps 740 mmHg 60%
11:00 +26°C° 0 mm 3 mps 740 mmHg 56%
12:00 +26°C° 0.4 mm 3 mps 740 mmHg 62%
13:00 +25°C° 0.4 mm 3 mps 740 mmHg 68%
14:00 +24°C° 0.4 mm 3 mps 740 mmHg 74%
15:00 +24°C° 0.1 mm 3 mps 739 mmHg 71%
16:00 +24°C° 0.1 mm 3 mps 739 mmHg 68%
17:00 +25°C° 0.1 mm 3 mps 739 mmHg 65%
18:00 +22°C° 0.2 mm 3 mps 739 mmHg 72%
19:00 +20°C° 0.2 mm 3 mps 739 mmHg 80%
20:00 +19°C° 0.2 mm 2 mps 739 mmHg 88%
21:00 +18°C° 0 mm 2 mps 739 mmHg 90%
22:00 +17°C° 0 mm 2 mps 739 mmHg 92%
23:00 +17°C° 0 mm 2 mps 739 mmHg 94%

Day after tomorrow, 30 July, Friday

Time Temperature Precipitation Wind Pressure Humidity
00:00 +17°C° 0 mm 2 mps 739 mmHg 95%
01:00 +16°C° 0 mm 2 mps 739 mmHg 97%
02:00 +16°C° 0 mm 2 mps 739 mmHg 98%
03:00 +16°C° 0 mm 2 mps 739 mmHg 97%
04:00 +17°C° 0 mm 2 mps 739 mmHg 97%
05:00 +18°C° 0 mm 1 mps 739 mmHg 96%
06:00 +19°C° 0 mm 2 mps 739 mmHg 87%
07:00 +21°C° 0 mm 2 mps 739 mmHg 78%
08:00 +23°C° 0 mm 2 mps 739 mmHg 68%
09:00 +25°C° 0.2 mm 3 mps 739 mmHg 63%
10:00 +26°C° 0.2 mm 3 mps 739 mmHg 57%
11:00 +27°C° 0.2 mm 3 mps 739 mmHg 51%
12:00 +26°C° 0.1 mm 4 mps 739 mmHg 53%
13:00 +26°C° 0.1 mm 4 mps 739 mmHg 55%
14:00 +25°C° 0.1 mm 4 mps 738 mmHg 57%
15:00 +25°C° 0.1 mm 4 mps 738 mmHg 56%
16:00 +23°C° 0.1 mm 4 mps 738 mmHg 55%
17:00 +23°C° 0.1 mm 4 mps 738 mmHg 53%
18:00 +21°C° 0 mm 3 mps 738 mmHg 58%
19:00 +20°C° 0 mm 3 mps 738 mmHg 62%
20:00 +18°C° 0 mm 2 mps 738 mmHg 66%
21:00 +18°C° 0 mm 2 mps 738 mmHg 66%
22:00 +18°C° 0 mm 2 mps 738 mmHg 67%
23:00 +18°C° 0 mm 2 mps 738 mmHg 68%

31 July, Saturday

Time Temperature Precipitation Wind Pressure Humidity
00:00 +17°C° 0.1 mm 2 mps 738 mmHg 75%
01:00 +16°C° 0.1 mm 2 mps 737 mmHg 82%
02:00 +15°C° 0.1 mm 2 mps 737 mmHg 89%
03:00 +14°C° 0 mm 3 mps 737 mmHg 88%
04:00 +14°C° 0 mm 3 mps 737 mmHg 87%
05:00 +14°C° 0 mm 4 mps 737 mmHg 85%
06:00 +15°C° 0 mm 4 mps 737 mmHg 79%
07:00 +16°C° 0 mm 5 mps 737 mmHg 72%
08:00 +17°C° 0 mm 5 mps 737 mmHg 65%
09:00 +19°C° 0 mm 5 mps 737 mmHg 59%
10:00 +21°C° 0 mm 6 mps 737 mmHg 53%
11:00 +23°C° 0 mm 6 mps 737 mmHg 47%
12:00 +23°C° 0 mm 6 mps 737 mmHg 49%
13:00 +23°C° 0 mm 7 mps 737 mmHg 52%
14:00 +23°C° 0 mm 7 mps 737 mmHg 55%
15:00 +23°C° 0 mm 7 mps 738 mmHg 53%
16:00 +23°C° 0 mm 6 mps 738 mmHg 51%
17:00 +24°C° 0 mm 6 mps 738 mmHg 49%
18:00 +22°C° 0 mm 5 mps 739 mmHg 58%
19:00 +20°C° 0 mm 4 mps 739 mmHg 66%
20:00 +19°C° 0 mm 3 mps 739 mmHg 75%
21:00 +18°C° 0 mm 3 mps 740 mmHg 80%
22:00 +17°C° 0 mm 3 mps 740 mmHg 86%
23:00 +16°C° 0 mm 3 mps 740 mmHg 91%

1 August, Sunday

Time Temperature Precipitation Wind Pressure Humidity
00:00 +16°C° 0 mm 2 mps 740 mmHg 93%
01:00 +15°C° 0 mm 2 mps 741 mmHg 95%
02:00 +15°C° 0 mm 2 mps 741 mmHg 97%
03:00 +15°C° 0 mm 2 mps 741 mmHg 95%
04:00 +16°C° 0 mm 2 mps 741 mmHg 93%
05:00 +16°C° 0 mm 2 mps 741 mmHg 91%
06:00 +17°C° 0 mm 2 mps 741 mmHg 85%
07:00 +18°C° 0 mm 3 mps 741 mmHg 80%
08:00 +19°C° 0 mm 3 mps 741 mmHg 74%
09:00 +19°C° 0 mm 3 mps 741 mmHg 74%
10:00 +19°C° 0 mm 4 mps 741 mmHg 73%
11:00 +19°C° 0 mm 4 mps 741 mmHg 72%
12:00 +20°C° 0 mm 4 mps 741 mmHg 71%
13:00 +21°C° 0 mm 4 mps 740 mmHg 69%
14:00 +22°C° 0 mm 4 mps 740 mmHg 67%
15:00 +22°C° 0.3 mm 4 mps 740 mmHg 70%
16:00 +22°C° 0.3 mm 4 mps 740 mmHg 73%
17:00 +22°C° 0.3 mm 4 mps 740 mmHg 75%
18:00 +20°C° 0.2 mm 3 mps 740 mmHg 80%
19:00 +19°C° 0.2 mm 3 mps 740 mmHg 85%
20:00 +18°C° 0.2 mm 2 mps 740 mmHg 90%
21:00 +17°C° 0 mm 2 mps 740 mmHg 89%
22:00 +17°C° 0 mm 2 mps 741 mmHg 89%
23:00 +17°C° 0 mm 2 mps 741 mmHg 89%

2 August, Monday

Time Temperature Precipitation Wind Pressure Humidity
00:00 +16°C° 0 mm 2 mps 741 mmHg 90%
01:00 +16°C° 0 mm 2 mps 741 mmHg 90%
02:00 +15°C° 0 mm 2 mps 742 mmHg 91%
03:00 +15°C° 0 mm 2 mps 742 mmHg 91%
04:00 +15°C° 0 mm 2 mps 742 mmHg 91%
05:00 +15°C° 0 mm 1 mps 742 mmHg 90%
06:00 +17°C° 0 mm 2 mps 742 mmHg 81%
07:00 +19°C° 0 mm 2 mps 742 mmHg 72%
08:00 +21°C° 0 mm 2 mps 742 mmHg 62%
09:00 +24°C° 0 mm 3 mps 741 mmHg 56%
10:00 +25°C° 0 mm 3 mps 741 mmHg 50%
11:00 +26°C° 0 mm 3 mps 741 mmHg 44%
12:00 +27°C° 0 mm 3 mps 741 mmHg 42%
13:00 +27°C° 0 mm 2 mps 740 mmHg 40%
14:00 +28°C° 0 mm 2 mps 740 mmHg 38%
15:00 +28°C° 0 mm 2 mps 739 mmHg 40%
16:00 +27°C° 0 mm 2 mps 739 mmHg 43%
17:00 +27°C° 0 mm 2 mps 738 mmHg 45%
18:00 +25°C° 0.1 mm 2 mps 738 mmHg 55%
19:00 +23°C° 0.1 mm 2 mps 737 mmHg 65%
20:00 +20°C° 0.1 mm 2 mps 736 mmHg 74%
21:00 +19°C° 0 mm 3 mps 736 mmHg 80%
22:00 +18°C° 0 mm 3 mps 735 mmHg 86%
23:00 +18°C° 0 mm 4 mps 735 mmHg 91%
Show more